ソーホー彗星

C/2005 W5 ( SOHO )

English version
Home page
Updated on February 12, 2006

---------------------------------------------------------------------

・ プロフィール

・ 軌道要素

Epoch 2005 Dec. 16.0 TT = JDT 2453720.5
T 2005 Nov. 29.91210 TT                                 MPC
q   0.0493181            (2000.0)            P               Q
n   0.16158616     Peri.   21.96168     -0.19853841     -0.87165905
a   3.3383608      Node    81.84466     +0.81835957     -0.39902260
e   0.9852269      Incl.   26.91558     +0.53932376     +0.28459001
P   6.10

---------------------------------------------------------------------

軌道要素はM.P.E.C. 2005-Y27に掲載されたものです。

---------------------------------------------------------------------

Copyright(C) Seiichi Yoshida (comet@aerith.net). All rights reserved.